This is the latest recevied weather packets stored in our database for station/object IW8RUI-5. If no packets are shown the sender has not sent any weather packets the latest 10 day(s).
| Time | Temp. | Humidity | Pressure | Rain* | Wind** | Luminosity | Snow |
|---|---|---|---|---|---|---|---|
| 1777721064 | 8.89° C | 10% | 1012 hPa | 0 mm | - | - | - |
| 1777720764 | 8.89° C | 10% | 1012 hPa | 0 mm | - | - | - |
| 1777720465 | 8.89° C | 10% | 1012 hPa | 0 mm | - | - | - |
| 1777720164 | 8.89° C | 10% | 1012 hPa | 0 mm | - | - | - |
| 1777719864 | 8.89° C | 10% | 1012 hPa | 0 mm | - | - | - |
| 1777719564 | 8.89° C | 14% | 1012 hPa | 0 mm | - | - | - |
| 1777719265 | 9.44° C | 11% | 1012 hPa | 0 mm | - | - | - |
| 1777718964 | 8.89° C | 11% | 1012 hPa | 0 mm | - | - | - |
| 1777718664 | 9.44° C | 11% | 1012 hPa | 0 mm | - | - | - |
| 1777718364 | 9.44° C | 11% | 1012 hPa | 0 mm | - | - | - |
| 1777718064 | 8.89° C | 14% | 1012 hPa | 0 mm | - | - | - |
| 1777717764 | 8.89° C | 14% | 1012 hPa | 0 mm | - | - | - |
| 1777717464 | 8.89° C | 14% | 1012 hPa | 0 mm | - | - | - |
| 1777717164 | 8.89° C | 11% | 1012 hPa | 0 mm | - | - | - |
| 1777716864 | 8.89° C | 10% | 1012 hPa | 0 mm | - | - | - |
| 1777716564 | 8.89° C | 11% | 1012 hPa | 0 mm | - | - | - |
| 1777716264 | 8.89° C | 11% | 1012 hPa | 0 mm | - | - | - |
| 1777715964 | 8.89° C | 10% | 1012 hPa | 0 mm | - | - | - |
| 1777715664 | 8.33° C | 10% | 1012 hPa | 0 mm | - | - | - |
| 1777715364 | 8.33° C | 12% | 1012 hPa | 0 mm | - | - | - |
| 1777715064 | 8.33° C | 14% | 1012 hPa | 0 mm | - | - | - |
| 1777714464 | 7.78° C | 14% | 1012 hPa | 0 mm | - | - | - |
| 1777714164 | 7.22° C | 17% | 1012 hPa | 0 mm | - | - | - |
| 1777713864 | 8.33° C | 17% | 1012 hPa | 0 mm | - | - | - |
| 1777713564 | 8.33° C | 17% | 1012 hPa | 0 mm | - | - | - |
* Rain latest hour (hover to see other rain measurements)
** Current wind speed in m/s (hover to see current wind gust speed)